Location: São Paulo
(23.5507°S, 46.6334°W)
Time: 07:41:13
(UTC-03:00)

Transit 4A - Pass Details

Date: 25 February 2026
Orbit: 864 x 977 km, 66.8° (Epoch: 11 March)

Event Time Altitude Azimuth Distance (km) Brightness Sun altitude
Rises 14:43:27 0° 294° (WNW) 3,660 11.6 52.6°
Reaches altitude 10° 14:47:13 10° 272° (W) 2,709 11.2 51.8°
Maximum altitude 14:50:48 15° 238° (WSW) 2,324 10.6 51.0°
Drops below altitude 10° 14:54:21 10° 203° (SSW) 2,686 10.5 50.2°
Sets 14:58:06 0° 180° (S) 3,614 10.9 49.4°
